Location: Arrodets-la-Barthe
(43.0306°N, 0.2829°E)
Time: 11:52:36
(UTC+00:00)

Lacrosse 4 Rocket - Pass Details

Date: 05 June 2022
Orbit: 541 x 611 km, 68.0° (Epoch: 03 July)

Event Time Altitude Azimuth Distance (km) Brightness Sun altitude
Exits shadow 00:29:29 12° 98° (E) 1,723 3.8 -24.0°
Drops below altitude 10° 00:30:52 10° 79° (ENE) 1,876 4.2 -24.0°
Sets 00:34:12 0° 50° (NE) 2,762 5.6 -23.9°
